2006 Rimini ETU Duathlon European Championships : Oct 07 2006 : 45-49 Male AG : Results

Pos First Name Last Name Country Time Run T1 Bike T2 Run
1 Ugo Moroni ITA 02:06:50 00:38:16 00:01:26 01:08:37 00:01:12 00:17:21
2 Leo Schrottenbach AUT 02:07:14 00:39:00 00:00:52 01:08:26 00:01:02 00:17:55
3 Chris Smith GBR 02:09:26 00:38:41 00:00:54 01:10:00 00:01:00 00:18:51
4 Gawie Nienaber GBR 02:11:03 00:43:33 00:01:08 01:04:43 00:01:04 00:20:35
5 Tiziano Bontempi ITA 02:11:26 00:40:03 00:01:07 01:10:41 00:01:04 00:18:31
6 Berrie Zoontjens NED 02:11:48 00:41:35 00:00:54 01:08:08 00:00:53 00:20:18
7 Luigi Scalvini ITA 02:11:52 00:40:01 00:00:52 01:11:22 00:00:48 00:18:49
8 Simon Osborne GBR 02:11:56 00:41:06 00:00:53 01:09:51 00:00:54 00:19:12
9 Enrico Salini ITA 02:17:07 00:42:51 00:00:56 01:11:54 00:00:58 00:20:28
10 Michele Mazzoni ITA 02:17:46 00:41:57 00:01:30 01:11:56 00:01:20 00:21:04
11 Mike Spiewok SUI 02:19:12 00:43:06 00:01:13 01:12:59 00:01:12 00:20:42
12 Simon Anderton GBR 02:19:39 00:43:08 00:01:14 01:13:34 00:01:30 00:20:15
13 Paolo Sassetti ITA 02:19:47 00:41:17 00:00:57 01:14:13 00:01:00 00:22:21
14 Frederic David GBR 02:20:40 00:41:29 00:01:10 01:16:51 00:01:20 00:19:51
15 Belli Fabio ITA 02:22:17 00:45:29 00:01:30 01:12:13 00:01:23 00:21:42
16 Alex Mcphee GBR 02:22:26 00:45:32 00:01:12 01:10:14 00:01:18 00:24:12
17 Renato Panzeri ITA 02:22:55 00:43:34 00:01:41 01:14:50 00:01:53 00:20:57
18 Neal Doggett GBR 02:24:52 00:48:17 00:01:26 01:10:15 00:01:15 00:23:41
19 Giorgio Marassi ITA 02:28:07 00:44:56 00:01:23 01:18:34 00:01:26 00:21:48
20 Aldo Micco ITA 02:28:07 00:44:52 00:01:48 01:17:38 00:01:37 00:22:14
21 Kevin Ormerod GBR 02:29:20 00:47:05 00:01:07 01:14:42 00:01:20 00:25:07
22 John Robinson GBR 02:30:57 00:49:33 00:01:00 01:13:06 00:01:10 00:26:08
DNF Dean Frost GBR 00:00:00 00:45:32 00:01:17 00:00:00 00:00:00 00:00:00
DNF Dean Hardie GBR 00:00:00 00:43:47 00:01:04 00:00:00 00:00:00 00:00:00
DNF Ian King GBR 00:00:00 00:56:55 00:01:45 00:00:00 00:00:00 00:00:00
DNF Maurizio Dominin ITA 00:00:00 00:44:14 00:01:12 00:00:00 00:00:00 00:00:00
DNF Fabio Vason ITA 00:00:00 00:46:28 00:01:31 00:00:00 00:00:00 00:00:00
DNF Harald Danzer AUT 00:00:00 00:41:22 00:01:20 00:00:00 00:00:00 00:00:00
DNS Nick Yarworth GBR 00:00:00 00:00:00 00:00:00 00:00:00 00:00:00 00:00:00
DNS Brett Cantello GBR 00:00:00 00:00:00 00:00:00 00:00:00 00:00:00 00:00:00
DNS Alan Hancock GBR 00:00:00 00:00:00 00:00:00 00:00:00 00:00:00 00:00:00